This is the latest recevied weather packets stored in our database for station/object EA4URC-10. If no packets are shown the sender has not sent any weather packets the latest 10 day(s).
| Time | Temp. | Humidity | Pressure | Rain* | Wind** | Luminosity | Snow |
|---|---|---|---|---|---|---|---|
| 1788441116 | 35.56° C | 15% | 1041.5 hPa | - | - | - | - |
| 1788441003 | 35.56° C | 15% | 1041.5 hPa | - | - | - | - |
| 1788439203 | 35.56° C | 15% | 1041.5 hPa | - | - | - | - |
| 1788437403 | 36.11° C | 15% | 1041.6 hPa | - | - | - | - |
| 1788435601 | 35° C | 15% | 1041.8 hPa | - | - | - | - |
| 1788433801 | 35° C | 17% | 1042.1 hPa | - | - | - | - |
| 1788432003 | 34.44° C | 18% | 1042.3 hPa | - | - | - | - |
| 1788430203 | 35° C | 16% | 1042.4 hPa | - | - | - | - |
| 1788428402 | 36.11° C | 19% | 1042.3 hPa | - | - | - | - |
| 1788426597 | 35° C | 21% | 1042.1 hPa | - | - | - | - |
| 1788424802 | 33.89° C | 21% | 1041.9 hPa | - | - | - | - |
| 1788423002 | 31.11° C | 23% | 1041.7 hPa | - | - | - | - |
| 1788421201 | 30° C | 27% | 1041.7 hPa | - | - | - | - |
| 1788419401 | 27.78° C | 31% | 1041.5 hPa | - | - | - | - |
| 1788417600 | 25.56° C | 40% | 1041.4 hPa | - | - | - | - |
| 1788415799 | 21.67° C | 44% | 1041 hPa | - | - | - | - |
| 1788414001 | 20° C | 75% | 1040.8 hPa | - | - | - | - |
| 1788412198 | 20.56° C | 82% | 1040.6 hPa | - | - | - | - |
| 1788410397 | 21.11° C | 73% | 1040.6 hPa | - | - | - | - |
| 1788408597 | 21.11° C | 87% | 1040.5 hPa | - | - | - | - |
| 1788406796 | 21.11° C | 87% | 1040.6 hPa | - | - | - | - |
| 1788404996 | 20.56° C | 92% | 1040.6 hPa | - | - | - | - |
| 1788403203 | 20.56° C | 91% | 1040.7 hPa | - | - | - | - |
| 1788401400 | 21.11° C | 92% | 1040.7 hPa | - | - | - | - |
| 1788399600 | 21.11° C | 87% | 1040.6 hPa | - | - | - | - |
* Rain since midnight (hover to see other rain measurements)
** Current wind speed in m/s (hover to see current wind gust speed)